www.pogodaiklimat.ru

Погода и климат >> Архив погоды >> Иран >> Shiraz


ПОГОДА в Shiraz

  • Прогноз погоды в Shiraz
  • Монитор погоды в Shiraz
  • Климат города

АРХИВ ПОГОДЫ в Shiraz

Время (UTC), дата Ветер
(напр.,м/с)
 
Видим.   Явления Облачность Т
(С)
Тd
(С)
f
(%)
Тe
(С)
Тes
(С)
Комфортность P
(гПа)
Po
(гПа)
Тmin
(С)
Tmax
(С)
R
(мм)
R24
(мм)
S
(см)
00 12.12 штиль 0 10 км ясно +1.4 -3.3 71 +1 +1 1020.9 856.0
03 12.12 штиль 0 15 км ясно -1.8 -5.6 75 -3 -3 1025.5 856.9 -2.4
06 12.12 штиль 0 15 км ясно +8.6 -1.5 49 +8 +14 1024.5 858.4
09 12.12 В 2 15 км ясно +15.2 -4.4 26 +15 +23 1021.8 856.5
12 12.12 В 2 15 км ясно +16.6 -4.1 24 +17 +19 1020.2 855.3
15 12.12 штиль 0 15 км ясно +8.4 -3.1 44 +8 +8 1024.7 856.2 +17.8
18 12.12 штиль 0 12 км ясно +3.0 -4.1 60 +2 +2 1024.1 857.0
21 12.12 З 2 12 км ясно +5.2 -3.8 52 +3 +3 1022.2 856.9
00 13.12 штиль 0 12 км ясно +0.6 -3.7 73 -0 -0 1021.9 856.7
03 13.12 штиль 0 12 км ясно -1.4 -5.1 76 -2 -2 1025.9 857.3 -2.2
06 13.12 СВ 2 8000 м мгла ясно +7.8 -3.4 45 +6 +11 1026.7 859.0
09 13.12 нст 1 10 км ясно +13.8 -4.0 29 +15 +24 1022.5 857.7
12 13.12 В 2 10 км ясно +15.8 -9.8 16 +16 +18 1021.6 856.1
15 13.12 штиль 0 10 км ясно +8.0 -3.7 43 +8 +8 1025.8 857.1 +16.6
18 13.12 штиль 0 10 км ясно +3.6 -4.7 55 +3 +3 1025.6 858.2
21 13.12 штиль 0 10 км ясно +2.8 -5.2 56 +2 +2 1024.3 857.8
00 14.12 штиль 0 10 км ясно -0.8 -4.3 77 -2 -2 1024.2 858.0
03 14.12 штиль 0 15 км ясно -1.0 -4.0 80 -2 -2 1027.7 858.8 -2.4
06 14.12 штиль 0 12 км ясно +7.4 -3.3 47 +7 +13 1027.7 859.9
09 14.12 штиль 0 10 км ясно +13.4 -6.6 24 +14 +24 1024.2 858.3
12 14.12 штиль 0 10 км ясно +16.4 -7.1 19 +16 +19 1022.1 856.4
15 14.12 штиль 0 10 км ясно +8.8 -3.9 40 +9 +9 1026.1 857.7 +17.0
18 14.12 ЮЗ 2 10 км ясно +6.6 -6.0 40 +5 +5 1024.8 858.2
21 14.12 штиль 0 10 км ясно +2.4 -7.3 49 +2 +2 1023.3 857.7
00 15.12 штиль 0 10 км ясно -0.2 -6.9 61 -1 -1 1023.5 857.7
03 15.12 штиль 0 10 км ясно -1.6 -6.8 68 -2 -2 1027.0 858.2 -2.0
06 15.12 штиль 0 10 км ясно +8.6 -5.0 38 +9 +14 1026.0 859.6
09 15.12 В 3 8000 м мгла ясно +13.4 -4.8 28 +13 +19 1023.8 857.9
12 15.12 В 2 8000 м мгла ясно +16.2 -11.1 14 +17 +18 1022.4 856.7
15 15.12 штиль 0 10 км ясно +7.2 -4.3 44 +7 +7 1026.8 857.7 +17.2
18 15.12 штиль 0 10 км ясно +3.4 -4.3 57 +3 +3 1026.2 858.9
21 15.12 штиль 0 10 км ясно +2.8 -4.5 59 +2 +2 1024.7 858.6
00 16.12 штиль 0 10 км ясно +0.2 -3.7 75 -1 -1 1025.0 859.1
03 16.12 штиль 0 10 км ясно -1.8 -4.4 82 -3 -3 1029.7 860.0 -2.2
06 16.12 штиль 0 7000 м мгла ясно +8.4 -3.1 44 +8 +14 1029.7 861.8
09 16.12 штиль 0 10 км ясно +13.8 -3.3 30 +14 +24 1025.5 859.6
12 16.12 ЮВ 2 7000 м мгла ясно +16.0 -4.2 25 +16 +18 1024.5 858.5
15 16.12 штиль 0 10 км ясно +7.2 -5.0 42 +7 +7 1029.1 859.5 +16.6
18 16.12 штиль 0 10 км ясно +2.6 -4.8 58 +2 +2 1028.2 860.3
21 16.12 штиль 0 10 км ясно +4.2 -3.8 56 +4 +4 1026.2 860.2
00 17.12 штиль 0 10 км ясно +1.0 -3.8 70 0 0 1025.8 859.9
03 17.12 штиль 0 10 км ясно -0.8 -5.0 73 -2 -2 1029.5 860.1 -1.4
06 17.12 нст 1 6000 м мгла ясно +6.4 -2.1 55 +6 +11 1029.7 861.1
09 17.12 нст 1 6000 м мгла ясно +14.2 -5.7 25 +15 +24 1023.8 858.6
12 17.12 В 2 6000 м мгла ясно +15.8 -6.6 21 +16 +18 1022.2 856.8
15 17.12 штиль 0 8000 м мгла ясно +8.0 -4.4 41 +8 +8 1026.1 857.5 +17.0
18 17.12 штиль 0 10 км ясно +5.2 -4.5 50 +5 +5 1025.6 858.3
21 17.12 штиль 0 10 км ясно +1.8 -4.0 65 +1 +1 1024.0 858.4
00 18.12 штиль 0 10 км ясно -0.8 -5.0 73 -2 -2 1023.8 857.7
03 18.12 штиль 0 10 км 3/0
[Ci fib]
-2.0 -5.9 75 -3 -3 1027.4 858.2 -2.0
06 18.12 штиль 0 10 км 6/0
[Cs]
+5.2 -3.1 55 +5 +10 1027.0 859.2
09 18.12 З 2 10 км 5/0
[Ac trans Cc]
+16.2 -12.4 13 +17 +23 1023.0 857.7
12 18.12 штиль 0 10 км 3/1 1200 м
[Sc diur, vesp Ac lent]
+17.4 -12.4 12 +17 +19 1021.2 855.8
15 18.12 нст 1 10 км ясно +9.0 -4.3 39 +9 +9 1024.7 856.3 +18.0
18 18.12 СЗ 2 10 км ясно +10.0 +1.1 54 +9 +9 1023.0 857.2
21 18.12 штиль 0 10 км ясно +4.2 -0.7 70 +3 +3 857.2

 

Местоположение метеостанции Shiraz (Иран): широта 29.53 долгота 52.53 высота над уровнем моря 1481 м.

В архиве по умолчанию представлена погода в Shiraz за последнюю неделю. Архивные данные за месяц целиком и за предыдущие месяцы, начиная с января 2011 года, Вы можете получить, выбрав интересующий диапазон дат из раскрывающегося списка и нажав кнопку "Ввод!".


*Определитесь, кто Вы:
робот инопланетянин человек

Внимание! Время в таблицах - всемирное. Для получения местного времени необходимо прибавить поправку, которая в Shiraz равна 3.5 ч.

Смотрите также архив погоды в соседних городах и на ближайших метеорологических станциях:

Погода в Fasa (Иран) (128 км)
Погода в Yasuj (Иран) (156 км)
Погода в Bushehr (Иран) (175 км)
Погода в Bushehr Airport (Иран) (176 км)
Погода в Abadeh (Иран) (184 км)
Погода в Gach Saran (Иран) (197 км)
Погода в Bandar Deyr (Иран) (198 км)
Погода в Khark (Иран) (216 км)
Погода в Omidieh (Иран) (308 км)
Погода в Sirjan (Иран) (309 км)

Пояснения к столбцам:

Ветер - указаны скорость ветра в м/с - средняя за 10 мин, порывы в срок и между сроками (в фигурных скобках) и направление, откуда дует ветер: С - северный, СВ - северо-восточный, В - восточный, ЮВ - юго-восточный, Ю - южный, ЮЗ - юго-западный, З - западный, СЗ - северо-западный.
Видимость - горизонтальная дальность видимости в метрах или километрах. При видимости от 1 до 10 км при отсутствии осадков обычно наблюдается дымка, при ухудшении видимости до 1 км и менее - туман. В сухую погоду видимость может ухудшаться дымом, пылью или мглою.
Явления - указаны атмосферные явления, наблюдавшиеся в срок или в последний час перед сроком; фигурными скобками обозначены явления, наблюдавшиеся между сроками (за 1-3 часа до срока); квадратными скобками обозначены град или гололедные отложения с указанием их диаметра в мм.
Облачность - указаны через наклонную черту общая и нижняя облачность в баллах и высота нижней границы облаков в метрах; квадратными скобками обозначены формы облаков: Ci - перистые, Cs - перисто-слоистые, Cc - перисто-кучевые, Ac - высококучевые, As - высокослоистые, Sc - слоисто-кучевые, Ns - слоисто-дождевые, Cu - кучевые, Cb - кучево-дождевые. Подробнее классификацию облаков см. в Атласе облаков (PDF).
T - Температура воздуха - температура, измеренная на высоте 2 м над землей.
Td - Температура точки росы - температура, при понижении до которой содержащийся в воздухе водяной пар достигнет насыщения.
f - Относительная влажность воздуха - влажноcть воздуха, измеренная на высоте 2 м над землей.
Te - Эффективная температура - температура, которую ощущает одетый по сезону человек в тени. Характеристика душности погоды. При расчете учитывается влияние влажности воздуха и скорости ветра на теплоощущения человека.
Tes - Эффективная температура на солнце - температура, которую ощущает человек, с поправкой на солнечный нагрев. Характеристика знойности погоды. Зависит от высоты солнца над горизонтом, облачности и скорости ветра. Ночью, в пасмурную погоду, а также при ветре 12 м/с и более поправка равна нулю.
P - Атмосферное давление - приведенное к уровню моря атмосферное давление.
Po - Атмосферное давление - измеренное на уровне метеостанции атмосферное давление.
Tmin - Минимальная температура - минимум температуры воздуха на высоте 2 м над землей.
Tmax - Максимальная температура - максимум температуры воздуха на высоте 2 м над землей.
R - Количество осадков - Количество выпавших осадков за период времени, мм. При наведении курсора мыши на число - период времени, за который выпало указанное количество осадков.
R24 - Количество осадков - Количество выпавших осадков за 24 часа, мм.
S - Снежный покров - Высота снежного покрова, см. При наведении курсора мыши на число - состояние снежного покрова и степень покрытия местности в баллах.